Wind_Speed
10 10 10 9 9 8 8 9 9 6 3 2 5 12 16 17 17 19 15 12 10 14 8 10 16 15 12 8 7 5 4 12 14 9 9 8 4 6 2 3 6 5 8 18 18
10 9 9 10 10 8 8 9 10 8 5 2 2 7 14 16 16 18 15 13 8 10 10 6 10 15 8 2 8 15 10 11 13 6 5 8 7 5 6 8 9 16 23 18 16
11 10 9 10 10 10 9 9 10 9 6 3 3 5 13 15 14 14 20 14 10 10 6 10 10 13 12 6 5 10 9 15 7 4 5 6 6 5 10 15 6 3 18 22 16
11 11 10 10 11 11 10 9 10 10 7 4 4 4 11 15 14 19 23 18 14 10 10 6 11 10 5 4 3 5 13 6 14 7 5 4 7 7 2 3 6 1 10 21 17
11 11 11 11 12 12 11 10 10 11 8 5 5 4 11 17 11 20 22 22 17 12 9 3 11 12 2 2 3 9 9 8 9 10 10 3 4 6 1 3 4 5 10 15 11
11 10 10 11 13 13 12 11 10 11 9 6 5 4 12 17 14 18 22 24 19 14 9 3 9 6 6 12 3 6 7 9 6 5 6 11 7 6 4 5 5 6 15 12 11
11 10 8 9 11 13 13 11 10 11 10 6 4 4 14 18 18 14 22 25 21 17 11 2 10 15 5 10 3 3 3 6 7 4 4 6 5 2 2 3 8 11 12 10 9
11 9 7 8 10 12 13 12 10 11 11 7 4 5 21 19 17 15 18 23 22 18 11 3 8 6 7 9 6 4 3 7 4 2 1 6 5 8 12 7 1 9 9 13 12
10 8 7 7 9 11 12 13 12 11 11 8 3 6 25 22 16 5 16 18 22 19 13 4 8 4 9 3 3 7 7 6 7 2 2 8 7 12 19 14 7 4 6 11 14
10 8 7 7 8 10 11 13 13 12 12 8 5 11 13 8 9 13 15 20 20 19 15 9 7 8 8 2 4 8 8 10 9 5 7 4 9 16 12 18 14 12 10 10 9
10 8 7 7 8 9 11 11 10 11 15 11 13 15 14 11 4 10 18 22 17 19 19 14 10 15 8 6 6 9 10 10 7 10 2 14 8 12 16 20 16 10 11 10 7
10 8 8 8 10 12 14 14 12 10 16 16 17 16 15 15 13 10 17 23 20 17 15 15 17 8 8 10 8 10 13 9 6 7 5 7 10 3 6 22 22 20 17 7 2
10 9 9 10 13 16 18 17 16 16 13 19 15 15 17 13 12 10 16 18 21 18 18 16 11 11 12 8 8 11 10 5 8 14 4 8 13 15 11 14 17 20 20 16 9
9 9 10 12 15 19 18 16 15 14 7 15 19 16 18 16 16 15 16 20 22 22 17 18 13 18 16 16 14 11 7 4 10 21 7 9 5 17 12 10 11 15 17 15 13
10 10 11 13 17 19 18 17 11 11 2 9 19 8 17 12 4 18 17 22 25 23 19 13 9 13 25 20 22 6 8 11 9 8 3 2 5 13 11 6 15 18 16 17 16
11 11 12 14 17 19 11 13 12 8 5 8 18 18 15 16 17 16 14 8 16 17 16 20 16 16 21 11 15 11 20 10 6 11 4 2 3 12 3 6 10 17 17 19 18
12 12 13 15 20 19 12 14 11 7 11 11 18 18 16 20 18 12 21 15 19 16 16 9 9 2 16 16 22 14 11 3 5 5 5 4 6 9 2 3 7 12 16 19 16
12 13 14 15 19 18 17 19 9 19 6 9 15 19 19 23 19 15 24 15 17 17 12 10 4 13 14 18 19 15 6 3 5 3 4 5 6 5 7 8 8 10 9 17 13
12 13 12 16 18 19 21 24 14 9 5 11 17 21 22 21 14 22 24 14 10 20 13 3 7 6 12 17 14 13 5 4 10 6 2 4 8 9 11 7 6 10 14 11 9
11 8 9 18 19 22 24 26 26 13 1 9 15 22 20 27 19 18 19 18 14 16 12 11 17 7 3 20 18 10 7 4 3 5 3 5 8 11 16 17 7 16 18 13 11
7 7 9 13 18 23 29 33 31 18 3 4 6 4 21 24 24 19 20 18 13 12 15 19 16 12 15 3 16 12 10 7 4 4 8 3 7 5 13 14 21 10 19 23 9
8 14 11 8 19 25 30 33 32 24 12 5 5 7 5 14 26 24 25 22 12 13 19 17 11 10 9 5 9 9 4 9 7 4 6 5 10 9 12 13 24 21 19 22 8
12 17 13 16 14 16 23 27 26 30 16 8 5 3 5 2 3 20 25 20 22 16 19 14 21 15 11 8 11 9 8 9 11 5 2 2 3 7 11 12 14 25 23 20 12
15 17 21 22 17 8 11 21 20 23 22 13 9 6 13 7 2 6 21 13 12 18 25 15 11 11 8 6 12 17 16 14 3 3 1 1 2 6 9 11 12 22 27 24 11
18 17 23 21 22 20 16 17 18 21 22 11 12 12 8 10 4 6 23 20 19 18 18 15 15 13 11 7 6 9 10 13 14 8 5 10 7 7 9 12 13 13 19 23 15
23 26 27 18 22 21 16 17 23 21 18 15 13 17 12 13 7 9 13 21 22 19 16 10 13 16 19 7 5 4 3 6 4 14 3 7 7 7 12 16 11 12 17 23 19
24 26 28 24 19 21 13 13 25 19 21 14 15 18 19 20 10 10 6 11 16 14 10 9 13 18 16 5 4 1 10 7 4 1 2 3 2 5 17 13 11 9 11 14 15
Wind_Direction
263 258 252 246 241 233 233 218 214 212 203 184 188 201 201 197 192 189 179 163 149 135 114 63 38 21 63 82 81 107 121 123 127 80 91 50 144 146 274 46 104 93 139 143 149
268 260 251 242 237 230 231 223 213 212 215 224 229 211 206 203 195 188 181 171 165 145 147 43 40 29 32 45 21 59 128 133 103 43 53 49 51 153 172 174 147 122 141 150 161
265 260 249 239 232 226 226 227 216 214 223 242 277 239 205 197 193 171 184 185 178 166 142 42 42 6 350 0 327 17 82 121 63 113 105 55 58 87 185 191 247 207 164 157 175
261 260 250 237 228 222 221 225 217 213 220 244 288 256 201 185 185 180 188 189 188 190 118 107 37 20 58 109 51 33 61 87 99 99 143 30 49 102 165 255 240 251 164 170 185
259 257 251 236 225 217 215 218 218 212 219 244 291 257 191 176 168 181 186 192 196 181 175 293 23 350 328 139 21 87 75 63 120 80 134 353 36 48 351 24 175 198 167 165 131
259 256 249 234 220 210 209 211 214 210 216 239 286 257 185 171 166 177 186 193 193 183 198 301 1 90 25 340 328 116 66 72 123 73 107 121 127 314 154 78 97 126 129 119 138
259 258 248 230 215 206 203 205 209 207 212 228 277 235 172 174 184 184 183 190 199 189 189 281 13 305 340 352 318 234 252 312 224 273 185 42 150 191 260 159 111 118 141 171 165
255 252 243 223 206 202 198 201 205 208 205 217 250 200 163 177 189 159 181 184 195 187 178 177 2 74 352 4 13 259 270 84 103 244 41 287 227 182 202 260 256 114 126 165 199
251 245 235 217 198 196 195 198 201 207 200 212 235 174 170 196 202 157 179 181 192 188 194 148 337 282 322 313 275 306 277 135 148 205 305 37 259 229 197 231 279 200 172 177 196
250 239 224 211 193 189 191 195 198 201 195 196 168 135 184 217 248 236 170 177 191 198 208 177 276 271 318 262 262 335 308 31 105 147 227 298 176 197 210 218 226 228 216 215 236
249 236 214 201 181 177 180 183 189 198 196 185 158 131 116 133 112 174 168 174 171 195 209 214 252 257 257 4 298 280 285 290 57 31 337 269 199 185 211 217 226 231 229 223 222
249 234 206 192 172 170 177 175 172 206 197 191 170 160 140 150 136 152 166 172 172 178 187 207 240 242 257 287 339 337 304 311 33 220 336 219 202 356 195 210 229 242 230 248 270
246 230 202 186 175 176 185 187 189 201 201 197 183 169 154 168 165 178 181 176 176 191 188 212 208 236 242 198 272 304 328 5 292 203 136 146 187 189 191 203 248 241 244 241 266
241 226 202 187 180 186 200 198 209 210 205 200 197 195 191 174 206 184 184 187 189 191 197 236 223 253 241 227 195 299 275 100 134 174 179 250 254 252 239 225 251 242 237 250 243
238 222 203 188 188 193 205 205 212 184 138 199 197 201 199 190 194 183 187 196 181 173 204 225 260 285 240 250 216 228 170 117 55 87 80 48 310 341 251 207 196 235 248 248 253
240 218 208 191 192 198 191 189 176 182 255 168 191 192 181 152 146 169 180 196 186 213 234 264 277 285 248 285 205 215 161 149 342 338 47 273 332 320 51 172 197 199 234 255 255
239 225 208 194 199 196 182 170 172 216 163 187 182 193 180 168 171 175 186 198 207 222 249 260 252 332 207 221 197 179 179 275 15 31 230 196 273 297 238 212 210 198 218 241 241
240 228 210 201 205 199 194 177 204 205 156 204 195 195 186 174 175 189 191 206 215 215 241 289 287 220 191 194 185 226 306 221 173 186 253 177 225 265 260 229 237 212 205 215 235
241 237 205 209 205 197 190 188 206 184 54 35 211 196 201 192 186 183 202 221 209 212 226 277 256 214 280 212 210 193 224 131 126 170 221 236 269 278 218 218 186 215 220 242 240
239 231 198 212 205 201 198 200 213 170 331 46 181 207 202 194 199 203 208 221 233 211 206 247 276 259 222 313 213 221 187 238 205 146 208 260 266 248 214 220 229 204 223 218 227
225 183 196 198 209 209 212 213 214 186 278 9 22 257 209 191 199 208 213 220 233 210 222 236 248 274 314 318 168 177 215 213 251 232 161 177 243 217 223 221 204 215 179 207 197
198 155 171 152 216 219 221 223 223 196 210 284 1 306 158 197 216 216 222 223 219 211 210 229 239 244 289 347 202 243 280 226 229 252 227 217 262 269 241 242 229 222 199 205 234
198 159 187 201 208 229 229 236 239 229 206 198 203 340 224 160 235 225 223 228 230 233 210 222 218 245 274 266 222 297 226 221 259 244 258 182 260 208 197 192 220 202 199 209 216
204 193 188 212 231 242 249 238 232 231 220 232 262 291 269 224 224 319 222 185 214 202 204 202 172 196 216 312 340 328 219 213 202 230 283 225 139 201 254 245 241 208 212 210 232
203 199 193 203 221 230 243 239 217 226 220 219 245 249 252 249 211 347 175 173 180 186 197 202 205 218 234 311 345 13 221 239 222 235 229 224 227 267 261 244 250 229 212 214 229
207 212 211 205 206 220 242 262 237 201 221 215 257 235 218 224 233 328 203 193 193 199 212 225 230 218 238 284 304 339 309 343 305 231 0 247 255 311 211 211 233 223 216 219 237
215 222 216 216 211 218 227 237 218 230 208 238 231 251 226 211 232 269 220 239 230 207 227 278 243 211 216 237 328 232 24 50 74 68 166 94 235 273 199 205 221 213 199 230 245
Height
3155 3156 3157 3157 3158 3159 3160 3161 3162 3164 3165 3166 3167 3168 3170 3172 3175 3178 3181 3185 3186 3187 3188 3188 3186 3187 3186 3185 3182 3184 3185 3182 3180 3181 3181 3181 3178 3176 3175 3175 3176 3176 3174 3177 3180
3153 3153 3154 3155 3156 3157 3158 3159 3161 3162 3163 3165 3165 3166 3168 3171 3175 3178 3182 3183 3186 3188 3188 3189 3188 3188 3188 3189 3188 3188 3184 3184 3183 3183 3183 3182 3181 3179 3177 3177 3178 3177 3178 3180 3181
3150 3151 3152 3153 3154 3155 3156 3157 3159 3160 3162 3163 3164 3164 3166 3170 3174 3178 3180 3183 3185 3188 3189 3190 3189 3189 3187 3188 3189 3189 3186 3187 3186 3185 3185 3184 3182 3181 3178 3178 3179 3178 3178 3181 3182
3148 3148 3149 3151 3152 3153 3154 3155 3157 3159 3161 3162 3162 3162 3164 3169 3174 3175 3178 3182 3184 3187 3190 3189 3190 3190 3189 3188 3189 3189 3188 3189 3188 3187 3186 3185 3184 3183 3184 3183 3182 3183 3183 3181 3184
3146 3146 3146 3148 3150 3151 3152 3153 3155 3157 3159 3160 3160 3161 3163 3168 3171 3174 3178 3180 3183 3187 3189 3189 3190 3189 3189 3188 3188 3189 3188 3190 3192 3187 3188 3188 3185 3184 3184 3184 3186 3186 3186 3187 3187
3143 3144 3144 3145 3147 3149 3150 3152 3153 3155 3157 3158 3159 3159 3162 3168 3171 3173 3177 3180 3183 3186 3188 3190 3190 3190 3189 3190 3190 3189 3188 3190 3191 3190 3190 3191 3190 3187 3186 3187 3188 3188 3188 3188 3189
3141 3142 3142 3143 3144 3146 3149 3150 3151 3153 3155 3157 3157 3158 3162 3166 3168 3171 3174 3179 3182 3185 3188 3191 3191 3189 3188 3189 3189 3189 3189 3190 3189 3189 3189 3191 3192 3191 3189 3189 3189 3188 3189 3190 3191
3139 3140 3140 3141 3142 3144 3146 3149 3150 3152 3154 3155 3156 3158 3162 3164 3167 3171 3174 3177 3180 3185 3188 3190 3191 3189 3190 3189 3188 3187 3188 3186 3187 3188 3190 3193 3195 3192 3191 3191 3190 3189 3190 3190 3191
3137 3138 3138 3140 3141 3142 3145 3147 3148 3150 3152 3154 3156 3158 3161 3163 3167 3170 3173 3176 3180 3184 3187 3189 3188 3189 3189 3188 3188 3185 3184 3183 3185 3189 3192 3193 3191 3189 3191 3192 3191 3190 3190 3191 3191
3135 3136 3137 3138 3139 3141 3143 3144 3146 3149 3151 3154 3156 3160 3162 3165 3167 3169 3172 3175 3179 3184 3186 3188 3188 3188 3188 3187 3188 3186 3184 3186 3186 3190 3192 3192 3188 3188 3188 3191 3191 3191 3192 3191 3191
3133 3134 3135 3136 3138 3140 3142 3144 3149 3150 3150 3153 3155 3157 3159 3162 3164 3165 3170 3174 3178 3181 3184 3187 3187 3186 3188 3189 3186 3187 3186 3190 3196 3194 3194 3188 3187 3186 3186 3189 3188 3189 3191 3189 3189
3131 3133 3134 3135 3137 3139 3141 3143 3145 3146 3148 3150 3153 3155 3158 3160 3162 3167 3170 3173 3176 3179 3183 3186 3185 3183 3189 3189 3189 3189 3186 3189 3195 3192 3187 3186 3186 3186 3180 3181 3184 3185 3184 3186 3188
3129 3131 3132 3133 3136 3137 3138 3141 3141 3142 3145 3149 3152 3155 3157 3159 3161 3165 3169 3172 3175 3178 3180 3181 3181 3184 3187 3189 3190 3186 3185 3188 3186 3188 3189 3187 3184 3180 3179 3181 3182 3182 3183 3184 3185
3126 3128 3131 3132 3136 3136 3137 3140 3141 3143 3146 3149 3150 3154 3155 3156 3161 3164 3167 3171 3173 3175 3179 3180 3180 3181 3185 3187 3188 3182 3184 3186 3185 3188 3186 3185 3180 3175 3178 3177 3176 3177 3180 3180 3182
3124 3126 3128 3131 3132 3134 3137 3138 3141 3145 3147 3147 3148 3151 3154 3157 3159 3160 3166 3169 3170 3173 3178 3176 3179 3180 3180 3181 3182 3184 3184 3186 3186 3185 3185 3185 3182 3174 3173 3174 3176 3177 3177 3177 3179
3121 3123 3126 3129 3131 3133 3136 3138 3142 3147 3142 3142 3145 3147 3151 3154 3157 3161 3163 3169 3172 3174 3176 3174 3177 3177 3181 3180 3181 3183 3182 3184 3183 3181 3183 3183 3184 3174 3174 3174 3175 3179 3178 3177 3178
3119 3121 3123 3127 3129 3131 3135 3138 3144 3140 3140 3141 3142 3145 3149 3152 3156 3158 3162 3165 3168 3172 3173 3173 3173 3172 3175 3179 3185 3181 3182 3181 3184 3185 3185 3183 3183 3175 3173 3175 3177 3177 3178 3176 3176
3115 3117 3121 3124 3126 3129 3133 3138 3139 3134 3136 3139 3140 3143 3147 3150 3153 3156 3160 3163 3166 3168 3170 3171 3170 3170 3173 3174 3176 3179 3179 3178 3186 3189 3183 3183 3180 3176 3174 3176 3177 3176 3175 3176 3176
3112 3114 3119 3121 3123 3127 3131 3134 3130 3133 3138 3138 3140 3142 3145 3148 3153 3154 3158 3160 3164 3165 3169 3169 3167 3170 3172 3172 3174 3175 3177 3177 3178 3181 3182 3179 3178 3174 3173 3176 3176 3174 3174 3174 3173
3109 3113 3115 3116 3120 3124 3127 3127 3126 3133 3135 3135 3138 3139 3140 3144 3149 3153 3156 3157 3159 3162 3165 3167 3167 3166 3167 3167 3170 3172 3175 3175 3175 3179 3181 3175 3174 3171 3171 3173 3174 3172 3170 3170 3173
3108 3110 3113 3115 3118 3120 3121 3122 3124 3130 3132 3134 3136 3138 3139 3141 3145 3148 3152 3154 3156 3159 3162 3164 3167 3166 3166 3164 3165 3171 3170 3170 3171 3172 3173 3177 3169 3165 3166 3169 3168 3169 3167 3168 3171
3106 3109 3110 3112 3116 3115 3118 3119 3124 3127 3133 3134 3135 3137 3138 3140 3142 3144 3147 3149 3152 3156 3158 3161 3164 3164 3166 3166 3167 3166 3167 3168 3168 3169 3168 3169 3165 3162 3163 3163 3162 3167 3166 3168 3173
3103 3107 3109 3109 3111 3113 3116 3117 3120 3123 3128 3132 3132 3132 3136 3138 3140 3140 3142 3146 3149 3151 3155 3158 3160 3163 3163 3166 3166 3167 3165 3166 3165 3165 3165 3165 3163 3160 3160 3160 3157 3160 3162 3165 3171
3101 3105 3107 3108 3110 3112 3114 3114 3115 3120 3123 3126 3126 3129 3131 3134 3136 3135 3138 3142 3144 3147 3151 3155 3158 3161 3164 3166 3166 3163 3162 3164 3164 3162 3161 3162 3161 3160 3158 3156 3157 3157 3161 3164 3169
3097 3099 3099 3103 3107 3107 3110 3110 3111 3115 3119 3121 3122 3126 3129 3131 3133 3134 3136 3138 3143 3146 3149 3152 3154 3158 3161 3163 3164 3162 3161 3162 3160 3160 3159 3160 3159 3159 3156 3156 3156 3156 3159 3165 3167
3091 3092 3096 3100 3102 3106 3108 3108 3109 3112 3115 3117 3118 3122 3125 3128 3132 3135 3138 3137 3139 3144 3147 3150 3152 3155 3157 3160 3161 3161 3160 3158 3157 3158 3157 3156 3158 3157 3158 3155 3158 3159 3161 3164 3167
3086 3088 3092 3097 3099 3101 3102 3102 3104 3107 3110 3112 3114 3118 3121 3125 3129 3133 3134 3137 3138 3140 3143 3146 3147 3150 3154 3158 3159 3159 3158 3154 3154 3155 3156 3156 3157 3156 3157 3160 3160 3161 3163 3165 3165